Content
SEND FEEDBACK

Daily
Averages
Monthly
Summary
Spain

MÁLAGA, SPAIN


Home > Europe > Spain
Elevation: 23 feet     Latitude: 36 40N     Longitude: 004 29W

WEATHER
 
SELECT A DAY
Number of Records: 324,213;   Date Range: 7/1/96 - 9/29/14
 
SHARE

PRINT THIS DATA

[ ← Previous Day ]
WEATHER ALMANAC - MAY 14, 2013
[ Next Day → ]
[ °C ]   °F
Weather ElementAverageHighLow
Temperature67.8 °F77 °F (2:00 pm)62.6 °F (3:00 am)
Dewpoint54.8 °F59 °F (12:30 am)41 °F (4:30 pm)
Humidity66 %88 % (3:00 am)24 % (2:00 pm)
Barometer29.90 in30.04 in (12:30 am)29.74 in (9:00 pm)
Wind Speed6.6 mph16.1 mph (8:00 pm)
Weather ElementAverage
Visibility6.7 mi
Wind DirectionSSE (154.8 °)

Weather ElementTotal
Precipitation---
Cooling Degree Days4.8 (Base 65)
Growing Degree Days19.8 (Base 50)
Averaged from 49 records on May 14, 2013
WEATHER CONDITIONS BREAKOUT
WIND DIRECTION BREAKOUT
WEATHER BY HOUR - MAY 14, 2013
[ °C ]   °F
Local TimeTemperatureDewpointHumidityBarometerVisibilityWind DirectionWind SpeedGust SpeedPrecipitationEventsConditions
12:30 AM64.4 °F59.0 °F83 %30.04 in6.2 miCalmScattered Clouds
1:00 AM64.4 °F59.0 °F83 %30.04 in6.2 miVariable1.2 mphScattered Clouds
1:30 AM64.4 °F59.0 °F83 %30.04 in6.2 miVariable1.2 mphPartly Cloudy
2:00 AM66.0 °F59.0 °F73 %30.04 in9.0 miWNW (300°)4.6 mphOvercast
2:00 AM64.4 °F59.0 °F83 %30.04 in6.2 miWNW (300°)4.6 mphPartly Cloudy
2:30 AM64.4 °F59.0 °F83 %30.04 in6.2 miWNW (300°)6.9 mphPartly Cloudy
3:00 AM62.6 °F59.0 °F88 %30.01 in6.2 miWNW (300°)8.1 mphPartly Cloudy
3:30 AM62.6 °F59.0 °F88 %30.01 in6.2 miWNW (300°)6.9 mphRainLight Rain
4:00 AM62.6 °F59.0 °F88 %29.98 in6.2 miWNW (290°)6.9 mphPartly Cloudy
4:30 AM62.6 °F59.0 °F88 %29.95 in6.2 miVariable2.3 mphPartly Cloudy
5:00 AM62.6 °F59.0 °F88 %29.95 in6.2 miWNW (290°)9.2 mphPartly Cloudy
5:30 AM62.6 °F59.0 °F88 %29.92 in6.2 miWNW (300°)3.5 mphPartly Cloudy
6:00 AM62.6 °F59.0 °F88 %29.95 in6.2 miNW (310°)1.2 mphPartly Cloudy
6:30 AM62.6 °F59.0 °F88 %29.92 in6.2 miVariable1.2 mphPartly Cloudy
7:00 AM62.6 °F59.0 °F88 %29.92 in6.2 miSSW (210°)2.3 mphPartly Cloudy
7:30 AM62.6 °F59.0 °F88 %29.92 in6.2 miWSW (240°)4.6 mphPartly Cloudy
8:00 AM64.0 °F58.0 °F75 %29.96 in9.0 mi°2.3 mphScattered Clouds
8:00 AM62.6 °F59.0 °F88 %29.95 in6.2 miVariable2.3 mphPartly Cloudy
8:30 AM64.4 °F59.0 °F83 %29.92 in6.2 miSouth (170°)8.1 mphPartly Cloudy
9:00 AM66.2 °F59.0 °F78 %29.95 in6.2 miSSE (160°)4.6 mphPartly Cloudy
9:30 AM66.2 °F59.0 °F78 %29.95 in6.2 miSSE (150°)6.9 mphPartly Cloudy
10:00 AM68.0 °F57.2 °F68 %29.95 in6.2 miSSE (150°)8.1 mphPartly Cloudy
10:30 AM68.0 °F57.2 °F68 %29.95 in6.2 miSE (130°)9.2 mphPartly Cloudy
11:00 AM69.8 °F57.2 °F64 %29.95 in6.2 miESE (110°)5.8 mphPartly Cloudy
12:00 PM71.6 °F53.6 °F53 %29.95 in6.2 miEast (90°)4.6 mphPartly Cloudy
12:30 PM73.4 °F50.0 °F44 %29.92 in6.2 miNNE (30°)2.3 mphPartly Cloudy
1:00 PM75.2 °F46.4 °F36 %29.92 in6.2 miNE (40°)1.2 mphPartly Cloudy
1:30 PM75.2 °F48.2 °F38 %29.89 in6.2 miSE (140°)5.8 mphPartly Cloudy
2:00 PM77.0 °F47.0 °F24 %29.90 in12.0 miSE (140°)6.9 mphScattered Clouds
2:00 PM75.2 °F46.4 °F36 %29.89 in6.2 miSE (140°)6.9 mphPartly Cloudy
2:30 PM75.2 °F48.2 °F38 %29.89 in6.2 miSSE (160°)9.2 mphPartly Cloudy
3:00 PM71.6 °F48.2 °F43 %29.86 in6.2 miSSE (150°)9.2 mphPartly Cloudy
3:30 PM73.4 °F46.4 °F38 %29.86 in6.2 miSSE (150°)10.4 mphPartly Cloudy
4:00 PM75.2 °F44.6 °F34 %29.86 in6.2 miSSE (150°)9.2 mphPartly Cloudy
4:30 PM73.4 °F41.0 °F31 %29.83 in6.2 miSSE (150°)10.4 mphPartly Cloudy
5:00 PM73.4 °F42.8 °F33 %29.83 in6.2 miSSE (150°)11.5 mphPartly Cloudy
5:30 PM75.2 °F44.6 °F34 %29.80 in6.2 miSE (140°)15.0 mphPartly Cloudy
6:00 PM73.4 °F46.4 °F38 %29.80 in6.2 miSE (140°)13.8 mphPartly Cloudy
6:30 PM71.6 °F50.0 °F46 %29.80 in6.2 miSE (140°)11.5 mphPartly Cloudy
7:00 PM69.8 °F51.8 °F53 %29.77 in6.2 miSSE (150°)15.0 mphPartly Cloudy
7:30 PM68.0 °F57.2 °F68 %29.77 in6.2 miSE (130°)13.8 mphPartly Cloudy
8:00 PM69.0 °F57.0 °F56 %29.77 in19.0 miSE (130°)16.1 mphScattered Clouds
8:00 PM68.0 °F55.4 °F64 %29.77 in6.2 miSE (130°)16.1 mphPartly Cloudy
9:00 PM68.0 °F57.2 °F68 %29.74 in6.2 miVariable1.2 mphPartly Cloudy
9:30 PM68.0 °F59.0 °F73 %29.77 in6.2 miWNW (300°)6.9 mphPartly Cloudy
10:00 PM66.2 °F59.0 °F78 %29.77 in6.2 miNorth (360°)11.5 mphPartly Cloudy
10:30 PM64.4 °F59.0 °F83 %29.77 in6.2 miCalmPartly Cloudy
11:00 PM64.4 °F57.2 °F77 %29.77 in6.2 miNW (310°)2.3 mphPartly Cloudy
11:30 PM64.4 °F57.2 °F77 %29.77 in6.2 miVariable1.2 mphPartly Cloudy
Hourly data recorded from LEMG, located miles away from Málaga, Spain







STORIES FROM OUR PARTNERS